Location: Proctor
(47.8934°N, 114.3048°W)
Time: 11:22:40
(UTC+00:00)

AIST 2D - Pass Details

Date: 09 July 2022
Orbit: 433 x 444 km, 97.0° (Epoch: 10 August)

Event Time Altitude Azimuth Distance (km) Brightness Sun altitude
Rises 06:12:05 0° 358° (N) 2,433 ? -16.9°
Reaches altitude 10° 06:14:28 10° 341° (NNW) 1,560 ? -17.0°
Maximum altitude 06:16:57 20° 293° (WNW) 1,093 ? -17.2°
Drops below altitude 10° 06:19:26 10° 245° (WSW) 1,556 ? -17.3°
Enters shadow 06:20:20 - 236° (SW) 1,866 ? -17.4°
